Weather History for Wilmington, DE

Change the Weather History Date:

Monday, April 7, 2014

  Actual Average Record
Temperature  
Mean Temperature 46 °F 50 °F  
Max Temperature 53 °F 61 °F 87 °F (1929)
Min Temperature 38 °F 40 °F 18 °F (1982)
Degree Days  
Heating Degree Days 19 15  
Month to date heating degree days 113 110  
Since 1 July heating degree days 4788 4416  
Cooling Degree Days 0 0  
Month to date cooling degree days 0 0  
Year to date cooling degree days 0 1  
Moisture  
Dew Point 45 °F    
Average Humidity 83    
Maximum Humidity 100    
Minimum Humidity 65    
Precipitation  
Precipitation 0.54 in 0.12 in 1.47 in (1924)
Month to date precipitation 0.67 0.89  
Year to date precipitation 13.07 10.50  
Snow  
Snow 0.00 in 0.00 in 1.20 in (1990)
Month to date snowfall 0.0 0.1  
Since 1 July snowfall 56.1 20.0  
Snow Depth 0.00 in    
Sea Level Pressure  
Sea Level Pressure 29.90 in    
Wind  
Wind Speed 9 mph (ENE)    
Max Wind Speed 21 mph    
Max Gust Speed 29 mph    
Visibility 6 miles    
Events Fog , Rain    
T = Trace of Precipitation, MM = Missing Value Source: NWS Daily Summary

Daily Weather History Graph

Daily Weather History Graph

Search for Another Location

Airport:

Trip Planner

Search our weather history database for the weather conditions in past years. The results will help you decide how hot, cold, wet, or windy it might be!

Date:

Astronomy

Apr. 07, 2014 Rise Set
Actual Time 6:37 AM EDT 7:32 PM EDT
Civil Twilight 6:09 AM EDT 7:59 PM EDT
Nautical Twilight 5:37 AM EDT 8:32 PM EDT
Astronomical Twilight 5:03 AM EDT 9:06 PM EDT
Moon 12:31 PM EDT (4/7) 2:07 AM EDT (4/7)
Length of Visible Light 13h 50m
Length of Day
12h 55m
First Quarter, 53% of the Moon is Illuminated
Apr 7
First Quarter
Apr 15
Full
Apr 22
Last Quarter
Apr 29
New
May 6
First Quarter

Hourly Weather History & Observations

Time (EDT) Temp. Windchill Dew Point Humidity Pressure Visibility Wind Dir Wind Speed Gust Speed Precip Events Conditions
12:51 AM 44.1 °F - 35.1 °F 71% 30.21 in 10.0 mi Calm Calm - N/A   Clear
1:51 AM 42.1 °F 40.2 °F 35.1 °F 76% 30.19 in 10.0 mi SE 3.5 mph - N/A   Clear
2:51 AM 42.1 °F - 34.0 °F 73% 30.17 in 10.0 mi Calm Calm - N/A   Clear
3:51 AM 41.0 °F 38.0 °F 35.1 °F 79% 30.16 in 10.0 mi ESE 4.6 mph - N/A   Clear
4:51 AM 39.9 °F 37.8 °F 33.1 °F 77% 30.16 in 10.0 mi ESE 3.5 mph - N/A   Clear
5:51 AM 39.9 °F 37.8 °F 33.1 °F 77% 30.14 in 10.0 mi East 3.5 mph - N/A   Clear
6:51 AM 39.9 °F 36.7 °F 36.0 °F 86% 30.16 in 10.0 mi East 4.6 mph - N/A   Clear
7:51 AM 41.0 °F 37.1 °F 35.1 °F 79% 30.18 in 10.0 mi East 5.8 mph - N/A   Overcast
8:51 AM 43.0 °F 38.2 °F 33.1 °F 68% 30.18 in 10.0 mi East 8.1 mph - N/A   Overcast
9:51 AM 45.0 °F 40.6 °F 33.1 °F 63% 30.16 in 10.0 mi ENE 8.1 mph - 0.00 in Rain Light Rain
10:51 AM 46.0 °F 41.9 °F 36.0 °F 68% 30.14 in 10.0 mi ENE 8.1 mph - 0.00 in Rain Light Rain
11:51 AM 46.0 °F 42.5 °F 39.0 °F 76% 30.11 in 7.0 mi ENE 6.9 mph - 0.01 in Rain Light Rain
12:51 PM 48.0 °F - 43.0 °F 83% 30.07 in 9.0 mi East 5.8 mph - 0.02 in Rain Light Rain
1:23 PM 48.9 °F - 44.1 °F 83% 30.04 in 10.0 mi East 9.2 mph - 0.01 in Rain Light Rain
1:51 PM 48.9 °F - 43.0 °F 80% 30.01 in 10.0 mi East 10.4 mph - 0.01 in Rain Light Rain
2:51 PM 51.1 °F - 46.0 °F 83% 29.91 in 10.0 mi East 18.4 mph - 0.00 in Rain Light Rain
3:02 PM 51.1 °F - 46.9 °F 86% 29.88 in 10.0 mi East 18.4 mph 25.3 mph 0.00 in Rain Light Rain
3:51 PM 52.0 °F - 48.0 °F 86% 29.88 in 10.0 mi East 12.7 mph - 0.00 in   Overcast
4:24 PM 52.0 °F - 48.9 °F 89% 29.85 in 1.8 mi East 13.8 mph - 0.05 in Rain Heavy Rain
4:30 PM 52.0 °F - 48.9 °F 89% 29.86 in 3.0 mi ENE 10.4 mph - 0.06 in Rain Light Rain
4:51 PM 52.0 °F - 50.0 °F 93% 29.86 in 1.5 mi NE 9.2 mph - 0.09 in Rain Heavy Rain
5:05 PM 51.1 °F - 50.0 °F 96% 29.81 in 1.2 mi ENE 13.8 mph - 0.08 in Rain Rain
5:36 PM 51.1 °F - 48.9 °F 92% 29.80 in 2.0 mi ENE 16.1 mph - 0.13 in Rain Rain
5:43 PM 51.1 °F - 48.9 °F 92% 29.80 in 1.2 mi ENE 11.5 mph - 0.17 in Rain Heavy Rain
5:51 PM 51.1 °F - 48.9 °F 92% 29.81 in 1.2 mi NE 16.1 mph - 0.21 in Rain Heavy Rain
6:04 PM 50.0 °F - 48.9 °F 96% 29.80 in 1.2 mi NE 13.8 mph - 0.03 in Rain Rain
6:51 PM 50.0 °F - 48.9 °F 96% 29.78 in 1.5 mi ENE 16.1 mph - 0.14 in Rain Rain
6:58 PM 50.0 °F - 48.9 °F 96% 29.76 in 2.0 mi NE 16.1 mph - 0.01 in Rain Light Rain
7:09 PM 50.0 °F - 48.9 °F 96% 29.77 in 5.0 mi NNE 9.2 mph - 0.01 in Rain Light Rain
7:20 PM 50.0 °F - 48.9 °F 96% 29.74 in 8.0 mi NE 12.7 mph - 0.01 in Rain Light Rain
7:39 PM 51.1 °F - 50.0 °F 96% 29.75 in 7.0 mi ENE 11.5 mph - 0.01 in Rain Light Rain
7:49 PM 51.8 °F - 50.0 °F 94% 29.75 in 5.0 mi ENE 6.9 mph - 0.02 in Rain Light Rain
7:51 PM 51.1 °F - 50.0 °F 96% 29.76 in 6.0 mi ENE 6.9 mph - 0.02 in Rain Light Rain
8:51 PM 51.1 °F - 50.0 °F 96% 29.71 in 4.0 mi ENE 10.4 mph - 0.02 in   Overcast
9:32 PM 51.1 °F - 50.0 °F 96% 29.73 in 2.0 mi ENE 9.2 mph - N/A   Overcast
9:40 PM 51.1 °F - 50.0 °F 96% 29.72 in 1.8 mi ENE 9.2 mph - 0.01 in Rain Light Rain
9:51 PM 51.1 °F - 50.0 °F 96% 29.72 in 1.8 mi ENE 10.4 mph - 0.01 in   Overcast
10:01 PM 51.1 °F - 50.0 °F 96% 29.72 in 2.0 mi ENE 8.1 mph - N/A   Overcast
10:41 PM 51.1 °F - 50.0 °F 96% 29.72 in 1.5 mi East 5.8 mph - N/A   Overcast
10:51 PM 51.1 °F - 50.0 °F 96% 29.70 in 1.0 mi East 9.2 mph - N/A   Overcast
11:02 PM 51.1 °F - 50.0 °F 96% 29.69 in 0.8 mi East 8.1 mph - N/A   Overcast
11:51 PM 52.0 °F - 51.1 °F 97% 29.65 in 0.2 mi SE 9.2 mph - N/A Fog Fog